Temperature
8 8 7 8 8 7 7 9 9 10 9 10 10 9 8 7 6 6 6 6 6 6 6 6 6 6 6 6 6 6 6 7 6 6 6 6 6 6 6 6 6 6 5 5
6 7 7 7 7 7 7 8 8 9 9 10 9 7 7 7 6 6 6 6 6 6 6 6 6 6 6 6 6 6 6 6 6 6 6 6 6 6 5 5 5 5 5 5
7 7 6 8 8 8 7 7 8 8 9 8 8 7 7 6 6 5 5 5 5 5 6 6 6 6 6 6 6 6 6 6 6 6 6 6 5 5 5 5 5 5 5 5
6 6 7 10 8 8 7 7 7 7 8 7 7 6 5 5 5 5 5 5 5 5 5 6 6 6 5 5 5 5 5 5 5 5 5 5 5 5 5 4 4 4 4 4
6 7 8 8 6 6 6 7 7 6 7 6 5 5 6 5 5 5 5 5 5 5 5 5 5 5 5 5 5 5 5 5 5 5 5 5 4 4 4 4 4 4 4 4
5 6 7 9 6 5 7 7 6 5 6 5 5 7 7 5 5 5 4 5 5 5 5 5 5 5 5 5 5 4 4 4 4 4 4 4 4 4 4 4 4 4 3 3
5 6 7 7 4 5 7 8 5 4 4 4 5 6 5 4 4 4 4 4 4 4 4 4 4 4 4 4 4 4 4 4 4 4 3 3 3 3 3 3 3 3 3 3
5 5 6 5 4 6 6 4 4 4 4 3 3 3 3 3 3 3 3 3 3 3 3 3 3 3 3 3 3 3 3 3 3 3 3 3 3 3 3 3 2 2 2 2
6 6 5 4 4 4 4 4 3 3 3 3 3 3 3 3 3 3 3 3 3 3 3 3 3 3 3 3 3 3 3 3 3 3 2 2 2 2 2 2 2 2 2 2
4 4 4 3 3 3 3 3 3 3 2 2 2 2 2 2 2 2 2 2 2 2 2 2 2 2 2 2 2 2 2 2 2 2 2 2 2 1 1 1 1 1 1 1
3 3 3 3 3 3 3 3 2 2 2 2 2 2 2 2 2 2 2 2 1 1 1 1 1 2 1 1 1 1 1 1 1 1 1 1 1 1 1 1 1 1 0 0
4 4 3 3 3 3 2 2 2 2 2 2 2 1 1 1 1 1 1 1 1 1 1 1 1 1 1 1 1 1 1 1 0 0 0 0 0 0 0 0 0 0 -0 -0
3 3 2 2 2 2 2 1 1 1 1 1 1 1 1 1 1 1 0 0 0 0 0 0 0 0 0 0 0 0 -0 -0 -0 -0 -0 -0 -0 -0 -0 -0 -0 -0 -1 -1
1 1 1 1 1 1 1 1 1 1 1 1 0 0 0 0 -0 -0 -0 -0 -0 -0 -0 -0 -0 -0 -1 -1 -1 -1 -1 -1 -1 -1 -1 -1 -1 -1 -1 -1 -1 -1 -1 -1
0 0 0 0 -0 -0 0 -0 -0 -0 -0 -0 -0 -0 -0 -0 -0 -0 -1 -1 -1 -1 -1 -1 -1 -1 -1 -1 -1 -1 -1 -1 -2 -2 -2 -2 -2 -2 -2 -2 -2 -2 -2 -2
-1 -1 -1 -1 -1 -1 -1 -1 -1 -1 -1 -1 -1 -1 -1 -1 -1 -1 -1 -1 -2 -2 -2 -2 -2 -2 -2 -2 -2 -2 -2 -2 -2 -2 -2 -2 -2 -2 -3 -2 -3 -3 -3 -3
-2 -2 -2 -2 -2 -2 -2 -2 -2 -2 -2 -2 -2 -2 -2 -2 -2 -2 -2 -2 -2 -2 -2 -2 -2 -2 -2 -2 -2 -2 -3 -3 -3 -3 -3 -3 -3 -3 -3 -3 -3 -3 -3 -3
-2 -2 -2 -2 -2 -2 -2 -2 -2 -2 -2 -2 -2 -2 -2 -2 -2 -2 -3 -3 -3 -3 -3 -3 -3 -3 -3 -3 -3 -3 -3 -3 -3 -3 -3 -3 -3 -3 -4 -4 -4 -4 -4 -4
-2 -2 -2 -2 -2 -3 -3 -3 -3 -3 -3 -3 -3 -3 -3 -3 -3 -3 -3 -3 -3 -3 -3 -3 -3 -3 -3 -3 -4 -4 -4 -4 -4 -4 -4 -4 -4 -4 -4 -4 -4 -4 -4 -4
-3 -2 -2 -3 -3 -3 -3 -3 -3 -3 -3 -3 -3 -4 -4 -4 -4 -4 -4 -4 -4 -4 -4 -4 -4 -4 -4 -4 -4 -4 -4 -4 -4 -4 -4 -5 -5 -5 -5 -5 -5 -5 -5 -5
-3 -3 -3 -3 -3 -3 -3 -3 -4 -4 -4 -4 -4 -4 -4 -4 -4 -4 -4 -4 -4 -4 -5 -5 -5 -5 -5 -5 -5 -5 -5 -5 -5 -5 -5 -5 -5 -5 -5 -5 -5 -5 -5 -5
-4 -4 -4 -4 -4 -4 -4 -4 -4 -4 -4 -4 -4 -4 -5 -5 -5 -5 -5 -5 -5 -5 -5 -5 -5 -5 -5 -5 -5 -6 -6 -6 -5 -5 -5 -6 -6 -6 -6 -6 -6 -6 -6 -6
-4 -4 -4 -4 -5 -4 -4 -4 -5 -5 -5 -5 -5 -5 -5 -5 -5 -5 -5 -5 -5 -5 -6 -6 -6 -6 -6 -6 -6 -6 -6 -6 -6 -6 -6 -6 -6 -6 -6 -6 -6 -6 -6 -6
-5 -5 -5 -5 -5 -5 -5 -5 -5 -5 -5 -5 -5 -5 -6 -6 -6 -6 -6 -6 -6 -6 -6 -6 -6 -6 -6 -6 -6 -6 -6 -6 -6 -6 -6 -6 -6 -6 -6 -6 -6 -6 -6 -6
-6 -6 -6 -6 -6 -6 -6 -6 -6 -6 -6 -6 -6 -6 -6 -7 -7 -7 -6 -6 -6 -6 -6 -6 -6 -7 -7 -7 -7 -7 -7 -7 -7 -7 -7 -7 -7 -7 -7 -6 -6 -6 -6 -6
-6 -6 -6 -6 -6 -6 -7 -7 -7 -7 -7 -7 -7 -7 -7 -7 -7 -7 -7 -7 -7 -7 -7 -7 -7 -7 -7 -7 -7 -7 -7 -7 -7 -7 -7 -7 -7 -7 -7 -7 -7 -7 -7 -6
-7 -7 -7 -7 -7 -7 -7 -7 -7 -7 -8 -8 -8 -8 -8 -8 -8 -8 -8 -8 -8 -8 -8 -8 -8 -8 -8 -8 -8 -8 -8 -8 -8 -8 -8 -7 -7 -7 -7 -7 -7 -7 -7 -7
Wind_Speed
11 9 7 9 11 12 13 12 10 10 10 9 6 5 5 4 3 3 3 3 3 3 3 2 1 2 3 4 4 5 6 6 7 6 6 6 6 6 6 6 6 7 7 7
8 8 8 11 13 13 14 13 14 13 12 8 6 3 3 3 2 3 3 4 4 4 4 3 3 3 3 3 4 5 6 6 5 5 5 6 6 6 6 6 6 7 7 7
6 4 6 11 11 12 9 9 10 12 9 3 3 3 3 3 2 3 3 4 4 4 4 4 4 4 3 3 3 4 5 5 5 5 6 6 6 6 7 7 7 7 8 8
4 3 9 5 2 7 9 8 10 9 6 4 4 4 3 3 2 3 4 5 5 5 5 4 4 3 3 2 3 3 4 4 5 5 6 5 6 6 7 6 7 7 8 8
4 7 9 5 3 5 6 6 6 8 7 4 2 2 2 1 3 4 5 5 5 5 5 5 4 3 2 2 2 3 4 5 5 5 5 5 6 7 7 6 7 7 7 7
6 6 7 2 2 2 3 5 1 4 4 2 2 2 2 3 4 5 5 5 5 5 5 4 4 3 2 2 3 4 4 4 4 5 5 6 6 6 6 6 6 6 7 7
10 9 7 1 2 4 5 2 2 1 2 3 3 3 4 4 4 4 5 5 5 5 4 4 4 3 3 3 4 4 4 4 4 5 6 6 6 5 5 5 6 6 6 6
8 9 8 3 5 5 1 2 0 1 2 3 4 4 4 4 4 4 4 5 4 4 4 5 4 3 3 4 5 4 4 4 4 5 5 4 5 5 5 5 6 6 6 6
8 7 0 4 3 1 1 1 2 2 3 4 4 4 5 4 4 4 5 5 4 4 5 5 5 4 5 6 5 4 4 5 5 5 5 4 5 5 5 5 5 5 5 6
4 5 3 2 2 1 1 2 2 3 3 4 4 4 5 4 5 5 5 5 5 5 5 6 6 5 6 6 5 5 5 5 5 5 4 4 4 4 5 5 6 5 6 6
6 4 3 4 4 3 3 2 2 3 3 4 4 5 5 4 5 5 5 5 5 5 6 7 7 7 6 6 5 5 5 5 5 5 5 4 5 5 6 7 7 7 6 6
6 5 5 5 4 3 3 3 3 4 4 4 4 5 5 5 5 5 5 5 5 5 6 7 7 7 6 6 5 5 5 5 4 4 4 4 5 5 6 7 8 9 9 8
7 5 5 5 3 2 2 3 3 4 4 5 4 4 5 5 5 5 5 6 6 6 7 7 7 7 6 6 5 6 6 6 5 5 5 5 5 5 5 5 7 9 9 9
4 2 2 2 3 3 2 2 3 4 4 4 4 4 4 5 5 5 6 6 6 6 6 6 6 7 7 6 6 6 6 6 6 5 5 5 5 5 5 5 5 5 6 8
3 2 3 2 2 2 2 2 3 3 3 4 4 4 4 5 6 6 6 5 5 5 6 6 7 8 7 6 6 6 6 5 5 5 5 5 5 5 5 6 5 5 4 5
2 2 2 2 2 2 2 2 3 4 4 5 5 5 5 5 5 6 5 5 5 6 6 6 7 8 7 6 6 6 5 6 6 5 5 5 5 5 5 5 5 5 5 5
2 2 2 2 3 4 4 4 4 5 5 5 6 5 5 4 5 5 5 5 5 6 6 7 8 8 7 6 6 5 5 5 6 5 5 5 5 5 5 5 5 5 5 5
3 3 4 4 4 5 5 4 4 4 5 5 5 4 4 4 5 6 6 6 6 6 6 6 7 7 7 6 6 5 5 5 5 5 5 5 5 5 5 5 6 6 5 5
2 2 3 3 4 4 4 4 4 4 4 4 4 4 4 4 5 5 5 5 6 7 6 6 8 7 7 7 6 5 5 5 5 5 5 6 6 5 5 5 5 5 5 5
3 3 3 3 3 3 4 4 4 4 3 3 3 3 4 5 5 5 5 5 6 6 7 8 8 7 6 6 6 5 5 5 5 5 5 5 5 5 5 5 5 5 5 5
4 4 4 4 4 4 4 4 4 4 4 3 3 4 5 6 5 5 5 6 6 6 7 8 6 6 6 6 7 5 5 6 5 5 5 5 5 5 5 5 5 5 5 5
5 4 5 4 5 5 5 4 4 4 4 4 4 4 5 6 6 5 6 5 6 8 7 6 6 7 8 9 6 6 6 6 5 5 5 5 5 5 5 5 5 5 5 5
5 5 5 5 5 6 6 5 4 4 5 5 5 5 5 5 5 5 6 5 5 8 7 6 8 11 11 7 6 6 6 6 6 5 5 5 5 5 5 6 5 5 5 5
6 6 5 5 5 5 6 6 5 4 5 5 5 5 5 5 5 4 5 8 9 10 7 8 11 11 10 6 5 5 6 6 6 5 5 5 5 5 5 5 5 5 5 5
6 5 5 5 4 4 5 5 5 5 5 4 5 5 4 4 5 6 6 7 9 9 7 8 10 10 7 5 5 6 6 6 6 6 5 5 5 5 5 5 5 5 5 5
5 4 4 4 4 4 4 4 4 4 4 5 5 4 4 4 5 5 5 6 8 9 7 6 6 7 6 6 6 6 6 6 6 6 5 5 5 5 5 5 6 5 5 5
4 4 3 4 4 3 3 3 4 4 4 5 6 6 5 5 5 5 6 6 6 6 6 6 6 6 6 6 6 6 6 6 6 5 5 5 5 5 5 5 5 5 4 5
Wind_Direction
262 268 252 250 243 224 219 229 242 252 255 269 283 294 307 319 329 338 346 347 344 335 327 318 294 241 223 225 219 208 205 209 216 216 213 213 214 214 213 213 215 210 211 213
260 251 253 258 250 234 230 237 245 258 265 273 283 282 288 301 314 319 328 332 331 327 323 314 300 282 257 238 226 218 219 222 224 221 215 215 217 216 214 215 216 214 215 217
256 262 274 258 240 219 217 220 223 237 249 266 269 273 284 295 307 318 324 327 325 320 312 306 298 287 276 268 245 227 229 231 229 224 219 217 214 214 216 219 218 219 220 221
252 252 243 255 194 205 217 233 225 232 242 247 262 277 287 292 302 319 327 327 325 322 318 313 306 295 286 277 253 240 239 237 232 227 225 219 216 219 221 221 222 224 225 226
216 243 263 263 192 189 209 246 229 229 249 269 287 271 267 352 319 311 317 318 319 318 316 314 310 304 293 283 270 259 254 249 239 228 228 225 226 227 226 224 226 227 229 229
216 231 244 256 146 177 181 232 201 218 246 235 186 242 274 334 319 319 323 323 323 323 322 316 313 308 295 287 278 269 264 259 251 239 234 235 236 236 233 230 233 233 235 234
224 234 255 274 119 153 203 238 99 198 240 208 226 278 309 312 311 314 319 320 320 320 318 312 312 303 285 286 282 282 277 266 254 245 241 241 240 236 233 232 235 236 238 240
210 224 241 148 149 189 236 61 96 308 279 257 280 303 300 297 299 305 312 316 317 316 315 317 314 299 292 293 295 295 286 270 260 252 245 240 238 238 235 231 233 238 240 245
205 219 321 156 169 143 96 270 302 302 288 275 276 288 293 294 295 298 302 307 310 310 311 316 315 303 294 298 300 292 280 270 265 259 249 239 233 233 234 231 233 238 242 248
229 245 243 219 218 278 300 283 294 291 284 274 274 285 291 291 294 296 300 304 307 306 305 307 309 302 296 299 296 287 278 273 268 259 251 242 237 233 232 233 235 238 243 250
244 259 273 241 227 243 270 279 290 293 289 280 277 283 287 290 293 295 298 300 298 294 294 297 303 303 304 303 296 284 279 276 270 260 254 247 241 239 238 240 239 241 245 246
246 244 246 259 256 269 273 279 288 302 308 302 284 284 288 288 289 290 292 295 293 293 294 297 300 301 304 301 291 283 280 275 269 263 259 254 253 257 247 248 252 251 253 251
259 264 264 272 275 285 286 291 292 290 290 298 300 292 289 289 292 293 294 295 293 292 292 295 297 299 303 301 290 277 272 272 271 266 259 255 254 256 267 262 250 250 250 250
249 248 259 264 281 302 311 311 307 302 296 293 298 299 290 288 290 290 292 296 296 293 293 295 296 300 306 302 292 283 277 271 265 265 259 254 252 253 256 260 267 269 255 250
250 251 252 273 288 305 318 319 314 309 311 312 308 297 290 288 288 291 295 297 294 291 295 300 300 303 308 301 291 284 278 272 267 264 260 256 255 254 253 254 258 266 271 264
263 263 252 262 282 297 302 301 299 301 307 305 302 299 295 289 288 292 296 297 294 294 299 302 301 303 306 299 293 287 278 270 268 266 262 258 255 254 254 254 255 257 259 263
236 263 269 272 282 290 289 285 280 285 293 294 296 300 300 299 300 302 307 308 301 296 297 295 295 301 301 295 290 285 282 275 265 264 260 257 257 257 257 256 257 261 262 259
246 250 253 257 267 280 289 292 288 286 287 291 298 299 296 294 296 302 308 309 307 303 300 298 299 302 299 296 290 283 278 276 270 266 264 260 261 260 258 257 258 262 268 263
303 284 284 280 273 270 277 286 292 295 296 294 290 290 290 288 290 296 300 300 299 301 308 314 312 306 300 298 295 283 276 273 270 268 266 266 266 263 261 261 263 263 263 260
332 318 307 301 294 279 274 281 287 289 289 286 284 286 290 293 295 296 298 295 291 293 301 304 304 301 301 301 299 286 277 273 272 272 269 265 264 265 264 262 262 262 260 257
335 330 321 311 306 300 289 287 285 284 288 285 276 280 288 295 294 290 290 295 302 309 306 302 301 300 301 302 299 290 283 278 274 270 268 266 265 265 263 262 260 260 260 259
321 315 310 307 308 307 302 296 288 286 289 286 283 283 287 292 295 291 280 281 295 307 310 303 302 302 306 305 296 289 285 282 277 274 270 267 266 266 265 264 263 263 260 260
311 307 305 304 302 301 303 301 293 285 283 283 283 285 285 287 290 289 294 301 305 308 308 300 303 307 308 305 296 292 290 287 281 276 273 271 267 266 266 267 267 267 263 261
311 308 303 303 303 300 300 303 302 293 288 287 283 281 283 289 292 286 287 299 307 306 302 300 305 308 309 300 294 293 291 289 285 281 277 275 272 271 270 269 270 271 268 264
311 308 304 304 300 294 295 302 304 302 300 297 297 296 290 285 287 296 300 301 306 307 302 302 305 308 306 294 292 291 290 287 287 286 282 280 277 276 275 274 272 272 271 268
316 313 310 304 296 297 300 301 302 305 307 305 305 305 304 301 297 297 298 301 301 303 303 301 302 303 297 294 293 291 290 290 288 284 282 283 281 280 278 278 278 276 273 270
326 323 321 323 322 317 309 303 301 303 305 304 304 306 308 308 306 306 305 304 306 305 305 303 302 299 297 296 295 293 290 289 287 283 282 281 279 277 278 278 278 280 279 274
Height
1499 1498 1499 1497 1496 1498 1497 1491 1488 1482 1483 1480 1481 1483 1483 1482 1481 1480 1479 1478 1477 1476 1475 1475 1474 1474 1474 1475 1476 1477 1478 1479 1479 1481 1482 1482 1483 1484 1484 1485 1486 1486 1487 1488
1501 1498 1497 1494 1490 1491 1491 1489 1486 1483 1481 1479 1481 1482 1482 1481 1480 1479 1478 1477 1476 1475 1474 1473 1473 1473 1472 1472 1473 1473 1474 1474 1475 1476 1477 1478 1479 1479 1480 1481 1481 1481 1482 1483
1494 1495 1495 1485 1479 1482 1483 1482 1481 1478 1476 1478 1480 1480 1480 1479 1479 1478 1477 1476 1475 1474 1473 1472 1471 1471 1471 1471 1470 1470 1470 1471 1471 1472 1472 1473 1474 1475 1476 1476 1477 1477 1478 1479
1495 1496 1490 1471 1475 1475 1476 1477 1478 1475 1476 1477 1478 1478 1478 1477 1477 1476 1475 1474 1473 1472 1471 1470 1470 1469 1468 1468 1467 1467 1467 1467 1467 1468 1468 1469 1470 1470 1471 1472 1472 1473 1473 1474
1494 1486 1474 1472 1475 1476 1476 1474 1475 1475 1475 1476 1477 1476 1475 1475 1475 1474 1473 1472 1471 1470 1469 1468 1467 1467 1466 1465 1464 1463 1463 1463 1463 1464 1464 1464 1465 1465 1466 1467 1467 1468 1468 1468
1489 1484 1475 1466 1472 1473 1475 1471 1473 1473 1473 1474 1475 1473 1473 1474 1473 1472 1471 1470 1469 1468 1467 1466 1465 1464 1463 1462 1461 1460 1460 1459 1459 1459 1459 1460 1460 1461 1461 1462 1462 1462 1462 1463
1482 1478 1467 1469 1472 1473 1472 1467 1472 1471 1472 1473 1473 1472 1473 1471 1471 1470 1469 1468 1467 1466 1464 1463 1462 1461 1459 1458 1458 1457 1456 1456 1455 1455 1455 1455 1456 1456 1456 1456 1457 1457 1457 1457
1477 1477 1470 1469 1471 1470 1468 1469 1469 1470 1470 1470 1470 1470 1469 1469 1468 1467 1467 1466 1464 1463 1461 1460 1459 1458 1456 1455 1454 1453 1452 1451 1451 1451 1451 1451 1451 1451 1451 1451 1451 1451 1451 1451
1467 1466 1465 1466 1466 1467 1468 1468 1468 1468 1468 1468 1468 1467 1467 1466 1465 1464 1464 1462 1461 1460 1458 1457 1456 1455 1453 1452 1450 1449 1448 1447 1446 1446 1446 1445 1445 1445 1446 1446 1446 1445 1445 1445
1466 1464 1465 1465 1465 1466 1467 1467 1467 1467 1466 1466 1465 1464 1464 1463 1462 1461 1460 1459 1458 1456 1455 1454 1453 1451 1450 1448 1446 1445 1443 1442 1441 1441 1440 1440 1440 1440 1440 1440 1440 1440 1440 1440
1463 1463 1464 1463 1464 1464 1464 1464 1465 1464 1464 1463 1462 1462 1461 1460 1459 1458 1457 1456 1455 1453 1452 1450 1449 1447 1446 1444 1442 1441 1439 1438 1437 1437 1436 1435 1435 1435 1435 1435 1435 1435 1434 1434
1459 1460 1461 1461 1462 1462 1462 1462 1462 1461 1461 1460 1460 1459 1458 1457 1456 1455 1454 1453 1451 1450 1448 1447 1445 1444 1442 1440 1438 1437 1435 1434 1433 1432 1432 1431 1430 1430 1429 1430 1429 1429 1429 1429
1457 1457 1458 1458 1459 1459 1459 1459 1459 1458 1458 1457 1457 1456 1455 1454 1453 1452 1451 1450 1448 1446 1444 1443 1441 1439 1438 1436 1435 1433 1431 1430 1429 1428 1427 1426 1425 1424 1424 1423 1423 1423 1423 1423
1455 1455 1455 1456 1456 1456 1456 1456 1456 1455 1455 1454 1453 1453 1452 1451 1449 1449 1447 1446 1444 1442 1441 1439 1437 1435 1434 1432 1431 1429 1427 1426 1425 1424 1423 1422 1421 1420 1419 1418 1417 1417 1417 1417
1452 1453 1453 1453 1453 1453 1453 1453 1453 1452 1451 1450 1450 1449 1448 1447 1446 1444 1443 1442 1440 1438 1437 1435 1433 1431 1430 1428 1426 1425 1423 1422 1420 1419 1418 1417 1416 1415 1414 1413 1413 1412 1411 1411
1449 1450 1450 1450 1450 1450 1450 1450 1449 1449 1448 1447 1446 1446 1445 1443 1442 1440 1439 1437 1436 1434 1432 1430 1429 1427 1426 1424 1422 1420 1418 1417 1416 1414 1413 1412 1411 1410 1409 1409 1408 1407 1407 1406
1447 1447 1447 1448 1448 1447 1447 1447 1446 1446 1445 1444 1443 1442 1441 1439 1438 1436 1435 1434 1432 1430 1428 1427 1425 1423 1421 1419 1417 1415 1414 1412 1411 1410 1409 1408 1407 1406 1405 1404 1403 1403 1402 1402
1445 1445 1445 1445 1445 1445 1444 1444 1443 1443 1442 1440 1439 1438 1437 1436 1434 1433 1431 1430 1428 1426 1425 1423 1421 1419 1417 1415 1413 1411 1409 1408 1406 1405 1404 1403 1402 1401 1400 1399 1398 1398 1397 1397
1443 1443 1442 1442 1442 1442 1441 1441 1440 1439 1438 1437 1436 1435 1434 1433 1431 1430 1428 1426 1424 1422 1421 1419 1417 1415 1412 1410 1409 1406 1405 1403 1402 1401 1399 1398 1397 1396 1396 1395 1394 1393 1392 1392
1441 1441 1440 1440 1440 1439 1439 1438 1437 1436 1435 1434 1433 1432 1431 1430 1428 1427 1425 1423 1421 1419 1417 1415 1412 1410 1408 1406 1404 1402 1400 1399 1397 1396 1395 1393 1392 1391 1391 1390 1389 1388 1388 1387
1439 1439 1438 1437 1437 1436 1436 1435 1434 1433 1432 1431 1430 1429 1428 1426 1425 1423 1421 1419 1417 1415 1413 1411 1408 1406 1404 1401 1399 1397 1396 1394 1392 1391 1390 1389 1388 1387 1386 1385 1384 1384 1383 1382
1438 1437 1436 1435 1434 1433 1432 1432 1431 1430 1429 1428 1427 1426 1424 1423 1421 1419 1418 1416 1413 1411 1409 1406 1404 1402 1399 1397 1395 1393 1391 1389 1388 1386 1385 1384 1383 1382 1381 1380 1379 1379 1378 1378
1436 1434 1433 1432 1431 1430 1429 1428 1427 1426 1425 1424 1423 1422 1420 1419 1417 1415 1413 1411 1409 1407 1404 1402 1400 1397 1395 1393 1390 1388 1386 1385 1383 1382 1381 1379 1378 1377 1376 1376 1375 1374 1374 1373
1433 1431 1430 1429 1428 1426 1425 1424 1423 1422 1421 1420 1419 1417 1416 1414 1412 1410 1409 1406 1404 1402 1400 1398 1396 1393 1391 1388 1386 1384 1382 1380 1379 1378 1376 1375 1374 1373 1372 1371 1371 1370 1369 1369
1430 1428 1427 1425 1424 1422 1421 1420 1419 1418 1417 1415 1414 1413 1411 1409 1407 1405 1403 1401 1399 1397 1395 1393 1391 1388 1386 1384 1382 1380 1378 1377 1375 1373 1372 1371 1370 1369 1368 1367 1366 1366 1365 1365
1426 1425 1424 1422 1421 1419 1418 1417 1415 1414 1412 1411 1409 1408 1406 1405 1402 1400 1398 1396 1394 1392 1390 1388 1386 1384 1382 1380 1378 1376 1374 1372 1371 1369 1368 1366 1365 1364 1364 1363 1362 1362 1361 1361
1424 1422 1421 1419 1418 1416 1415 1413 1412 1410 1409 1407 1405 1403 1402 1400 1398 1396 1394 1392 1390 1387 1385 1383 1381 1379 1377 1375 1373 1371 1370 1368 1366 1365 1363 1362 1361 1360 1359 1359 1358 1358 1357 1357